[[{"header":{"parameterUnit":"m.s-1","parameterCategory":1,"la1":30.2991,"la2":30.254,"lo1":-89.0895,"lo2":-89.0444,"dy":0.0017,"dx":0.0017,"nx":28,"ny":28,"refTime":"2025-08-20T21:00:00:Z","depth":0,"parameterNumber":2,"parameterNumberName":"U-component_of_WINDS"},"data":[0,0,0,0,0,0,0,0,0,0,0,0,0,0,0,0,0,0,0,0,0,0,0,0,0,0,0,0,0,0,0,0,0,0,0,0,0,0,0,0,0,0,0,0,0,0,0,0,0,0,0,0,0,0,0,0,0,0,-1.3257,-1.3252,0,-1.2763,-1.2757,-1.2751,-1.2547,-1.2548,-1.2549,-1.255,-1.2025,-1.201,-1.1995,0,0,0,0,0,0,0,0,0,0,0,0,0,-1.4008,-1.3995,-1.3257,-1.3251,-1.3245,-1.2764,-1.2757,-1.275,-1.2546,-1.2548,-1.2549,-1.255,-1.203,-1.2012,-1.1994,0,0,0,0,0,0,0,0,0,0,0,0,0,-1.3614,-1.3991,-1.3258,-1.3086,-1.3065,-1.2765,-1.2757,-1.2748,-1.2546,-1.2548,-1.2549,-1.2551,-1.2036,-1.2014,-1.1991,-1.182,0,0,-1.1923,-1.1913,0,0,0,0,0,0,0,0,-1.3637,-1.3587,-1.3117,-1.3097,-1.3074,-1.2719,-1.2829,-1.2436,-1.2546,-1.2743,-1.255,-1.2552,-1.2253,-1.2213,-1.2116,-1.1795,-1.1773,-1.1921,-1.1907,-1.1897,-1.1891,0,0,0,0,0,0,0,-1.3664,-1.3607,-1.3061,-1.3111,-1.3084,-1.3027,-1.2973,-1.2753,-1.2494,-1.2726,-1.271,-1.2655,-1.2241,-1.2138,-1.2102,-1.1765,-1.1921,-1.1901,-1.1888,-1.1879,-1.128,-1.1277,0,0,0,0,0,0,-1.3723,-1.3631,-1.3077,-1.3046,-1.3366,-1.3013,-1.2952,-1.283,-1.2496,-1.2447,-1.2654,-1.2647,-1.2176,-1.2128,-1.2083,-1.186,-1.1898,-1.1877,-1.1864,-1.1282,-1.1279,-1.1277,0,0,0,0,0,0,-1.374,-1.3675,-1.3096,-1.3334,-1.3256,-1.2998,-1.2863,-1.282,-1.2717,-1.2442,-1.2393,-1.2598,-1.2175,-1.2114,-1.1888,-1.1839,-1.1866,-1.1846,-1.1285,-1.1281,-1.1278,-1.1415,0,0,0,0,0,0,-1.3762,-1.3683,-1.3618,-1.3335,-1.3245,-1.2916,-1.286,-1.2809,-1.2681,-1.2667,-1.2376,-1.2329,-1.2172,-1.1923,-1.1866,-1.1809,-1.1828,-1.1288,-1.1283,-1.1279,-1.1414,-1.1417,-1.1419,0,0,0,0,0,-1.379,-1.3672,-1.3616,-1.355,-1.316,-1.2914,-1.2861,-1.2688,-1.2678,-1.2609,-1.2433,-1.2338,-1.1855,-1.1902,-1.1836,-1.1771,-1.129,-1.1285,-1.1279,-1.1412,-1.1416,-1.1419,0,0,0,0,0,0,-1.3949,-1.3632,-1.3566,-1.3355,-1.3164,-1.288,-1.2787,-1.2697,-1.2499,-1.2494,-1.2282,-1.2217,-1.201,-1.1867,-1.1925,-1.1588,-1.1565,-1.1546,-1.1689,-1.169,-1.1692,-1.173,-1.181,0,0,0,0,0,-1.3962,-1.3794,-1.3523,-1.3362,-1.3271,-1.3047,-1.2932,-1.2816,-1.2607,-1.2523,-1.233,-1.2126,-1.1927,-1.18,-1.1603,-1.1393,-1.1325,-1.1316,-1.1319,-1.1322,-1.1307,-1.1186,-1.1178,-1.1259,-1.1259,-1.1259,0,0,-1.3981,-1.3787,-1.3693,-1.339,-1.3228,-1.3054,-1.2979,-1.2797,-1.2665,-1.2492,-1.227,-1.2122,-1.1879,-1.1662,-1.1556,-1.1536,-1.1271,-1.1315,-1.1321,-1.1303,-1.1179,-1.1172,-1.1166,-1.1255,-1.1256,-1.1256,0,0,-1.393,-1.3768,-1.3617,-1.3459,-1.3218,-1.307,-1.3035,-1.2764,-1.2662,-1.2436,-1.2304,-1.2141,-1.1804,-1.1637,-1.1508,-1.1399,-1.1304,-1.134,-1.1352,-1.1236,-1.123,-1.1223,-1.1183,-1.1172,-1.1326,-1.1327,-1.1327,0,-1.3983,-1.3723,-1.3549,-1.3377,-1.3246,-1.309,-1.2934,-1.2786,-1.249,-1.2401,-1.2386,-1.1962,-1.1787,-1.1529,-1.1504,-1.1404,-1.1354,-1.137,-1.1247,-1.1238,-1.1229,-1.1188,-1.1174,-1.1333,-1.1332,-1.1331,-1.1331,0,-1.38,-1.3621,-1.3527,-1.3255,-1.3113,-1.2949,-1.2746,-1.2623,-1.252,-1.2373,-1.2145,-1.1931,-1.1689,-1.1619,-1.1513,-1.1344,-1.134,-1.1289,-1.126,-1.123,-1.1188,-1.1171,-1.1341,-1.1339,-1.1337,-1.1336,0,0,-1.3831,-1.347,-1.3438,-1.3313,-1.3037,-1.2892,-1.2721,-1.249,-1.2388,-1.219,-1.2038,-1.176,-1.1712,-1.1566,-1.144,-1.1339,-1.1265,-1.1298,-1.1289,-1.1299,-1.1065,-1.1106,-1.1091,-1.1203,-1.1199,-1.1196,-1.1086,0,-1.3742,-1.3435,-1.3276,-1.3034,-1.2865,-1.2717,-1.2566,-1.2379,-1.2238,-1.207,-1.191,-1.1717,-1.1668,-1.1579,-1.1473,-1.1298,-1.1215,-1.1303,-1.1054,-1.1048,-1.1119,-1.1069,-1.1109,-1.1015,-1.1068,-1.1065,-1.1063,0,-1.3596,-1.3408,-1.3153,-1.29,-1.2823,-1.2692,-1.2469,-1.2312,-1.2095,-1.1999,-1.184,-1.1718,-1.1526,-1.1516,-1.1248,-1.1312,-1.12,-1.1099,-1.1091,-1.1059,-1.1053,-1.1033,-1.0981,-1.0967,-1.1036,-1.1038,-1.104,0,-1.3645,-1.3327,-1.3133,-1.303,-1.273,-1.2642,-1.2511,-1.2297,-1.217,-1.1973,-1.1887,-1.1669,-1.1548,-1.138,-1.12,-1.121,-1.095,-1.0924,-1.0861,-1.0865,-1.081,-1.0815,-1.0737,-1.0742,-1.0743,-1.0743,-1.0743,0,-1.356,-1.3409,-1.3152,-1.3032,-1.2858,-1.2674,-1.2505,-1.2362,-1.2173,-1.202,-1.1876,-1.1734,-1.1507,-1.1335,-1.1193,-1.0993,-1.0939,-1.0853,-1.0816,-1.0864,-1.0876,-1.0786,-1.0788,-1.0739,-1.074,-1.0741,-1.0741,0,-1.3583,-1.3405,-1.3184,-1.2922,-1.2852,-1.2735,-1.2506,-1.2382,-1.2237,-1.2044,-1.1988,-1.1756,-1.1547,-1.1353,-1.1072,-1.0977,-1.0773,-1.0727,-1.0849,-1.0829,-1.0776,-1.0783,-1.0636,-1.0607,-1.0636,-1.0636,-1.0636,0,-1.3541,-1.3422,-1.3149,-1.304,-1.2915,-1.274,-1.2611,-1.2425,-1.2296,-1.2043,-1.1948,-1.1731,-1.1547,-1.1219,-1.1021,-1.0806,-1.0752,-1.0716,-1.0718,-1.0771,-1.075,-1.0759,-1.0745,-1.0718,-1.0719,-1.0719,-1.072,0,-1.3484,-1.3403,-1.3227,-1.302,-1.2873,-1.2699,-1.252,-1.2437,-1.2216,-1.2078,-1.1867,-1.1725,-1.1443,-1.1226,-1.099,-1.0849,-1.0746,-1.0722,-1.0695,-1.0742,-1.0817,-1.0774,-1.0856,-1.0725,-1.0724,-1.0724,-1.0723,-1.0723,-1.347,-1.3359,-1.3152,-1.296,-1.2808,-1.2645,-1.2517,-1.2358,-1.2181,-1.1941,-1.184,-1.1626,-1.1411,-1.1084,-1.0945,-1.0771,-1.0748,-1.071,-1.07,-1.0693,-1.0703,-1.0849,-1.0727,-1.0726,-1.0726,-1.0726,-1.0725,0,-1.3405,-1.3266,-1.3092,-1.2851,-1.27,-1.2625,-1.2424,-1.23,-1.2116,-1.1928,-1.1752,-1.1509,-1.13,-1.1089,-1.0868,-1.0769,-1.0716,-1.0717,-1.072,-1.0689,-1.0736,-1.0781,-1.0763,-1.0763,-1.0763,-1.0763,-1.0763,-1.0763,-1.3354,-1.3162,-1.3057,-1.2787,-1.2646,-1.244,-1.2332,-1.218,-1.2029,-1.1767,-1.1596,-1.1463,-1.1263,-1.1027,-1.0831,-1.0774,-1.0697,-1.0711,-1.0641,-1.0687,-1.0686,-1.0685,-1.0725,-1.0697,-1.0697,-1.0608,-1.0607,-1.0607]},{"header":{"parameterUnit":"m.s-1","parameterCategory":1,"la1":30.2991,"la2":30.254,"lo1":-89.0895,"lo2":-89.0444,"dy":0.0017,"dx":0.0017,"nx":28,"ny":28,"refTime":"2025-08-20T21:00:00:Z","depth":0,"parameterNumber":3,"parameterNumberName":"V-component_of_WINDS"},"data":[0,0,0,0,0,0,0,0,0,0,0,0,0,0,0,0,0,0,0,0,0,0,0,0,0,0,0,0,0,0,0,0,0,0,0,0,0,0,0,0,0,0,0,0,0,0,0,0,0,0,0,0,0,0,0,0,0,0,-3.0425,-3.0427,0,-3.0645,-3.0648,-3.065,-3.0856,-3.0859,-3.0861,-3.0864,-3.1074,-3.1077,-3.108,0,0,0,0,0,0,0,0,0,0,0,0,0,-3.0163,-3.0167,-3.0424,-3.0427,-3.043,-3.0645,-3.0648,-3.0651,-3.0856,-3.0859,-3.0862,-3.0865,-3.1073,-3.1076,-3.108,0,0,0,0,0,0,0,0,0,0,0,0,0,-3.0319,-3.0168,-3.0424,-3.0558,-3.0573,-3.0644,-3.0648,-3.0652,-3.0855,-3.0859,-3.0863,-3.0866,-3.1071,-3.1076,-3.1081,-3.1032,0,0,-3.1095,-3.1097,0,0,0,0,0,0,0,0,-3.031,-3.0328,-3.0536,-3.0549,-3.0565,-3.0728,-3.0633,-3.0779,-3.0854,-3.0747,-3.0864,-3.0868,-3.0954,-3.0969,-3.1001,-3.1042,-3.1051,-3.1096,-3.1099,-3.1101,-3.1102,0,0,0,0,0,0,0,-3.0299,-3.032,-3.0511,-3.0538,-3.0557,-3.0602,-3.0629,-3.0661,-3.0826,-3.0757,-3.0772,-3.0797,-3.0963,-3.0996,-3.1008,-3.1054,-3.1096,-3.11,-3.1103,-3.1105,-3.106,-3.1056,0,0,0,0,0,0,-3.0269,-3.0309,-3.0504,-3.0518,-3.0445,-3.0604,-3.0633,-3.0671,-3.0826,-3.0854,-3.0793,-3.0805,-3.0986,-3.1002,-3.1016,-3.0965,-3.1101,-3.1105,-3.1108,-3.1064,-3.1059,-3.1054,0,0,0,0,0,0,-3.0263,-3.0285,-3.0496,-3.0418,-3.0449,-3.0604,-3.0645,-3.0674,-3.0707,-3.0854,-3.0882,-3.0798,-3.099,-3.1009,-3.1026,-3.0975,-3.1107,-3.1112,-3.1068,-3.1062,-3.1056,-3.0863,0,0,0,0,0,0,-3.0255,-3.0282,-3.0269,-3.0417,-3.0452,-3.0507,-3.0642,-3.0675,-3.0717,-3.0735,-3.0866,-3.0891,-3.0994,-3.1018,-3.1031,-3.0984,-3.1115,-3.1073,-3.1066,-3.1058,-3.0875,-3.0852,-3.0832,0,0,0,0,0,-3.0245,-3.0204,-3.0267,-3.029,-3.044,-3.0504,-3.0523,-3.0648,-3.0712,-3.0697,-3.0791,-3.0887,-3.098,-3.1018,-3.1035,-3.0988,-3.1077,-3.1068,-3.1059,-3.0885,-3.0856,-3.0832,0,0,0,0,0,0,-3.0041,-3.0225,-3.0298,-3.0305,-3.0387,-3.0538,-3.0524,-3.0614,-3.0676,-3.069,-3.0837,-3.0865,-3.0863,-3.0929,-3.0968,-3.0946,-3.1041,-3.1035,-3.0903,-3.0877,-3.0856,-3.0837,-3.1119,0,0,0,0,0,-2.9998,-3.0039,-3.0197,-3.0186,-3.0225,-3.0366,-3.0399,-3.0488,-3.0577,-3.0612,-3.0707,-3.0785,-3.0832,-3.0859,-3.0911,-3.0887,-3.0914,-3.0862,-3.0841,-3.0822,-3.0813,-3.0798,-3.0775,-3.1024,-3.1024,-3.1025,0,0,-2.9906,-3.0013,-3.0029,-3.0148,-3.0223,-3.0256,-3.0394,-3.0425,-3.0449,-3.0615,-3.0637,-3.0709,-3.0806,-3.0801,-3.0803,-3.0854,-3.0751,-3.081,-3.0794,-3.0796,-3.0787,-3.0763,-3.0741,-3.1018,-3.1019,-3.102,0,0,-2.9757,-2.9845,-2.9844,-2.9916,-3.0029,-3.0123,-3.0122,-3.026,-3.0315,-3.0341,-3.0465,-3.0493,-3.0572,-3.0634,-3.0676,-3.0547,-3.0635,-3.056,-3.0443,-3.0428,-3.0408,-3.0391,-3.0339,-3.0319,-3.0551,-3.0551,-3.0551,0,-2.9627,-2.9689,-2.983,-2.9853,-2.9898,-3.0056,-3.0051,-3.0113,-3.0234,-3.0258,-3.0316,-3.0416,-3.0493,-3.0501,-3.047,-3.0501,-3.0499,-3.0543,-3.0401,-3.0385,-3.0371,-3.0323,-3.0303,-3.0541,-3.0542,-3.0543,-3.0544,0,-2.9521,-2.9561,-2.9546,-2.9663,-2.9707,-2.9716,-2.9852,-2.9879,-2.9964,-3.005,-3.007,-3.0168,-3.0239,-3.0249,-3.0331,-3.0267,-3.0295,-3.0375,-3.0472,-3.0335,-3.0291,-3.0274,-3.0526,-3.0529,-3.0533,-3.0535,0,0,-2.9246,-2.9443,-2.9434,-2.9486,-2.9622,-2.9652,-2.9665,-2.974,-2.9756,-2.9835,-2.9844,-2.9907,-2.9981,-3.0028,-3.0118,-3.0105,-2.9988,-3.0186,-3.019,-3.014,-2.9916,-2.985,-2.9827,-3.005,-3.0047,-3.0045,-2.9906,0,-2.9114,-2.9153,-2.9279,-2.9277,-2.9311,-2.946,-2.947,-2.955,-2.9631,-2.9667,-2.9754,-2.9793,-2.9892,-2.992,-2.9915,-3.0003,-2.9944,-3.0016,-3.0052,-3.0052,-3.0017,-2.9806,-2.9738,-2.9601,-2.989,-2.9888,-2.9886,0,-2.8966,-2.9037,-2.9038,-2.9169,-2.9188,-2.9196,-2.9271,-2.9307,-2.9398,-2.9457,-2.9509,-2.961,-2.9626,-2.9721,-2.9739,-2.9785,-2.9808,-2.9853,-2.9851,-2.9854,-2.9956,-2.9796,-2.9562,-2.9538,-2.9861,-2.9863,-2.9865,0,-2.8756,-2.8853,-2.8865,-2.8907,-2.9061,-2.9062,-2.9125,-2.9222,-2.9257,-2.9321,-2.9344,-2.9408,-2.9441,-2.9485,-2.9598,-2.9659,-2.9601,-2.9708,-2.9644,-2.964,-2.962,-2.9618,-2.9379,-2.9645,-2.9645,-2.9645,-2.9646,0,-2.8592,-2.8585,-2.8773,-2.8779,-2.8774,-2.8918,-2.8906,-2.8983,-2.9067,-2.9086,-2.9219,-2.9232,-2.9385,-2.9413,-2.9502,-2.9499,-2.9515,-2.9557,-2.9579,-2.9542,-2.9535,-2.9554,-2.9563,-2.964,-2.9641,-2.9642,-2.9643,0,-2.8356,-2.8483,-2.8505,-2.865,-2.8686,-2.8674,-2.8795,-2.8804,-2.8893,-2.8915,-2.8928,-2.9065,-2.9106,-2.9226,-2.9296,-2.9355,-2.9324,-2.9371,-2.9293,-2.9306,-2.9233,-2.9235,-2.8992,-2.8964,-2.9253,-2.925,-2.9248,0,-2.824,-2.8238,-2.8383,-2.8408,-2.8467,-2.8505,-2.8542,-2.8682,-2.8714,-2.8817,-2.881,-2.8863,-2.8912,-2.8969,-2.9071,-2.9124,-2.9169,-2.908,-2.9177,-2.9137,-2.9159,-2.9155,-2.9152,-2.9056,-2.9052,-2.9049,-2.9047,0,-2.8017,-2.808,-2.8131,-2.8203,-2.8244,-2.8306,-2.8375,-2.8386,-2.8542,-2.857,-2.8616,-2.8654,-2.8727,-2.8774,-2.8843,-2.8902,-2.8996,-2.9016,-2.9003,-2.8961,-2.8913,-2.8931,-2.9228,-2.9019,-2.9022,-2.9024,-2.9026,-2.9027,-2.7833,-2.7837,-2.7939,-2.799,-2.8057,-2.8118,-2.8132,-2.8224,-2.8266,-2.8339,-2.8418,-2.8452,-2.8539,-2.8643,-2.8694,-2.8719,-2.877,-2.8753,-2.8747,-2.8739,-2.8718,-2.8915,-2.8733,-2.8734,-2.8735,-2.8736,-2.8736,0,-2.7611,-2.7685,-2.7731,-2.7825,-2.7862,-2.7957,-2.8037,-2.806,-2.8091,-2.8167,-2.8213,-2.8261,-2.8308,-2.8414,-2.8468,-2.8467,-2.8511,-2.8476,-2.8473,-2.8484,-2.8673,-2.8676,-2.8439,-2.8439,-2.8439,-2.8439,-2.8439,-2.8439,-2.75,-2.7509,-2.7583,-2.7624,-2.7697,-2.7736,-2.7772,-2.7826,-2.7887,-2.7938,-2.7978,-2.805,-2.8135,-2.8197,-2.824,-2.827,-2.828,-2.8229,-2.8271,-2.8444,-2.8472,-2.8498,-2.8501,-2.8232,-2.8232,-2.808,-2.8078,-2.8077]}]]